Location: Unspecified
(0.0000°N, 0.0000°E)
Time: 14:08:53
(UTC+00:00)

STARLINK-31997 - Visible Passes

Search period start: 15 June 2025 00:00
Search period end: 25 June 2025 00:00
Orbit: 474 x 476 km, 53.2° (Epoch: 15 June)

Date Brightness Start Highest point End Pass type
(mag) Time Alt. Az. Time Alt. Az. Time Alt. Az.
17 Jun 5.6 19:50:48 10° SW 19:51:45 17° SW 19:51:45 17° SW visible
18 Jun 3.3 19:21:16 10° SW 19:24:58 82° WNW 19:28:39 10° NNE visible
19 Jun 3.2 18:51:48 10° SSW 18:55:30 77° SE 18:59:10 10° NE visible
20 Jun 3.3 18:22:22 10° SSW 18:26:01 59° SE 18:29:38 10° NE visible
23 Jun 5.4 05:08:57 10° N 05:12:15 31° NE 05:15:34 10° ESE visible
23 Jun 7.1 18:34:10 10° WNW 18:35:16 11° NW 18:36:22 10° NW visible
24 Jun 5.8 04:39:42 10° N 04:42:47 25° NE 04:45:51 10° ESE visible
